Temperature
19 19 19 19 18 18 18 18 18 18 18 17 17 17 17 17 17 17 16 16 16 16 16 16 16 16 16 16 16 16 15 15 15 15 15 15 15 14 14 14 14 14 14
19 19 19 18 18 18 18 18 18 17 17 17 17 17 17 17 17 16 16 16 16 16 16 16 16 15 16 16 16 15 15 15 15 15 14 14 14 14 14 14 13 13 13
19 19 19 18 18 18 18 17 17 17 17 17 17 17 16 16 16 16 16 16 16 15 15 15 15 15 15 15 15 15 15 15 15 14 14 14 14 14 13 13 13 13 13
19 19 18 18 18 18 18 17 17 17 17 17 17 16 16 16 16 16 16 16 15 15 15 15 15 15 15 15 15 15 14 14 14 14 14 14 13 13 13 13 12 12 12
19 19 18 18 18 18 17 17 17 17 17 16 16 16 16 16 16 16 15 15 15 15 15 15 15 15 14 14 14 14 14 14 14 13 13 13 13 13 13 12 12 12 12
19 18 18 18 18 17 17 17 17 17 16 16 16 16 16 16 15 15 15 15 15 15 14 14 14 14 14 14 14 14 14 14 13 13 13 13 13 13 13 12 12 12 11
19 18 18 18 17 17 17 17 16 16 16 16 16 16 16 16 15 15 15 15 14 14 14 14 14 14 14 14 14 13 13 13 13 13 13 13 13 12 12 12 12 12 12
18 18 18 17 17 17 17 16 16 16 16 16 15 15 15 15 15 15 15 14 14 14 14 14 14 13 13 13 13 13 13 13 13 13 13 13 12 12 12 12 12 12 12
18 18 17 17 17 17 16 16 16 16 15 15 15 15 15 15 15 15 14 14 14 13 13 13 13 13 13 13 13 13 12 12 12 12 12 12 12 12 12 12 11 11 11
18 18 17 17 17 16 16 16 16 16 15 15 15 15 15 15 15 14 14 14 13 13 13 13 13 13 13 13 12 12 12 12 12 12 12 12 12 11 11 11 11 11 11
17 17 17 17 16 16 16 16 15 15 15 15 14 14 14 14 14 14 14 13 13 13 13 13 13 12 12 12 12 12 12 12 12 12 11 11 11 11 11 11 11 11 11
17 17 17 16 16 16 15 15 15 15 15 14 14 14 14 14 14 13 13 13 13 13 12 12 12 12 12 12 12 12 12 11 11 11 11 11 11 11 11 11 11 10 10
17 16 16 16 15 15 15 15 15 15 14 14 14 13 13 13 13 13 13 13 12 12 12 12 12 12 12 11 11 11 11 11 11 11 11 11 11 11 10 10 10 10 10
16 16 16 15 15 15 15 14 14 14 14 14 14 13 13 13 13 13 12 12 12 12 12 12 12 12 11 11 11 11 11 11 11 10 11 10 10 10 10 10 10 10 10
16 16 15 15 15 15 15 14 14 14 14 14 14 13 13 13 13 12 12 12 12 12 12 11 11 11 11 11 11 10 10 10 10 10 10 10 10 10 10 10 10 9 9
15 15 15 15 15 14 14 14 14 14 14 13 13 13 13 13 12 12 12 12 12 11 11 11 11 11 11 11 10 10 10 10 10 10 10 10 10 10 10 10 9 9 9
15 15 15 15 15 14 14 14 14 14 13 13 13 13 12 12 12 12 12 11 11 11 11 11 11 10 10 10 10 10 10 10 10 10 10 10 9 10 9 9 9 9 9
15 15 15 15 15 14 14 14 14 13 13 13 12 12 12 12 12 11 11 11 11 11 11 10 10 10 10 10 10 9 9 9 9 9 9 9 9 9 9 9 9 9 9
15 15 15 15 15 14 14 14 13 13 13 12 12 12 12 12 11 11 11 11 11 11 10 10 10 10 10 9 9 9 9 9 9 9 9 9 8 8 9 9 9 9 9
15 15 15 14 14 14 14 14 13 13 13 12 12 12 12 11 11 11 11 11 10 10 10 10 10 9 9 9 9 9 8 8 8 8 8 8 8 8 8 8 8 8 8
14 14 14 14 14 14 14 13 13 13 13 12 12 12 12 11 11 11 11 10 10 10 10 10 9 9 9 9 8 8 8 8 8 8 8 8 8 8 8 8 8 8 8
14 14 14 14 14 14 13 13 13 13 12 12 12 11 11 11 11 11 10 10 10 10 10 9 9 9 9 8 8 8 8 8 8 8 8 7 7 8 8 8 8 8 8
14 14 14 14 13 13 13 13 13 12 12 12 12 11 11 11 11 10 10 10 10 9 9 9 9 9 8 8 8 8 8 8 8 7 7 7 7 7 7 7 7 7 7
14 14 13 13 13 13 13 13 13 12 12 12 12 11 11 11 10 10 10 10 9 9 9 9 9 8 8 8 8 8 7 7 7 7 7 7 7 7 7 7 7 7 7
14 14 13 13 13 13 13 13 12 12 12 12 11 11 11 11 10 10 10 10 9 9 9 9 8 8 8 8 8 7 7 7 7 7 7 7 6 6 6 6 6 6 6
13 13 13 13 13 13 13 12 12 12 12 11 11 11 11 11 10 10 10 10 9 9 9 8 8 8 8 8 7 7 7 7 7 7 6 6 6 6 6 6 6 6 6
Wind_Speed
4 3 2 2 2 2 2 1 1 1 2 2 2 2 2 2 2 1 1 1 1 2 2 2 2 2 2 2 1 1 1 2 2 1 1 1 2 3 4 4 6 6 5
4 3 3 2 2 2 2 2 2 2 1 2 2 2 2 2 2 2 2 3 2 3 3 3 3 3 2 2 2 1 1 1 2 3 2 1 2 2 3 3 4 5 5
5 4 3 3 2 2 2 2 2 2 2 2 2 2 2 2 3 3 2 3 3 3 3 3 3 3 3 3 2 1 1 1 1 2 2 1 1 2 2 2 3 3 4
5 5 3 3 2 2 2 2 2 2 2 2 2 1 2 3 3 3 3 3 3 3 4 4 4 4 3 3 2 2 1 0 1 1 2 2 2 2 2 2 2 2 2
5 4 4 3 2 2 2 2 2 2 2 2 2 2 2 2 3 3 2 2 2 3 3 4 4 5 6 4 3 3 2 1 0 0 1 1 1 2 2 2 2 2 2
4 3 4 3 3 3 2 2 2 2 2 2 2 2 3 3 4 5 3 2 2 3 3 3 3 4 6 6 5 5 3 1 1 1 1 1 1 1 1 2 2 2 2
4 3 3 3 3 3 2 2 2 2 2 2 2 3 3 4 5 6 5 2 3 3 3 2 2 3 4 3 3 3 3 3 2 1 1 0 0 1 2 2 2 2 2
5 4 3 3 3 2 2 2 1 2 2 2 2 3 3 4 5 5 5 1 3 3 3 3 3 3 4 4 1 2 3 3 2 1 1 1 1 1 1 2 2 2 1
5 4 3 3 3 3 2 1 1 2 2 2 3 3 3 3 4 5 5 1 2 3 3 4 3 3 6 6 2 2 2 2 4 5 4 3 3 2 2 1 1 1 1
4 3 3 3 3 3 2 2 1 2 2 3 3 3 4 4 4 5 4 0 2 2 3 3 5 5 5 5 2 1 1 2 1 2 2 2 1 1 1 1 1 0 0
3 3 3 3 3 3 3 2 2 2 3 3 4 3 4 4 4 4 4 2 2 1 2 2 3 4 4 4 3 2 2 2 1 1 1 1 1 1 1 1 1 0 0
3 3 3 3 2 3 3 2 2 3 3 3 3 3 3 4 4 3 4 3 3 2 2 2 2 2 3 3 2 3 4 3 1 1 1 1 1 1 0 0 0 1 1
4 3 3 3 3 3 3 3 2 2 2 3 2 3 3 3 3 3 2 3 4 2 2 2 0 2 2 1 1 2 2 2 1 1 0 0 0 1 1 1 1 1 1
4 4 3 3 3 3 2 2 2 1 1 1 2 2 3 3 3 2 1 1 1 1 1 1 2 3 2 1 1 1 1 1 2 2 1 0 0 0 0 0 0 0 1
4 4 4 4 4 3 3 3 2 2 1 1 1 2 2 3 2 1 1 0 1 1 1 1 1 1 0 0 0 0 0 1 1 2 2 2 1 0 0 0 0 1 1
5 5 4 4 4 4 5 4 7 4 5 6 5 4 4 5 4 3 3 2 3 2 1 1 0 1 1 1 1 1 1 2 2 2 1 2 1 1 1 1 1 1 1
4 3 3 4 5 5 5 5 4 4 5 6 5 5 6 5 4 3 2 3 3 1 1 1 1 1 2 1 1 1 1 1 2 2 2 2 2 2 1 1 1 1 2
4 4 4 3 4 5 5 5 5 6 5 3 2 3 5 5 3 1 1 1 0 0 0 1 1 1 2 2 3 3 2 2 2 3 3 3 3 3 2 2 2 2 2
5 4 4 3 4 4 4 4 4 5 5 5 5 3 4 4 2 2 1 1 1 0 0 1 1 2 2 2 3 2 2 2 2 2 2 3 3 3 3 3 2 2 2
4 5 4 4 4 4 4 5 4 4 4 4 4 5 5 4 3 3 2 2 1 0 1 1 2 2 2 2 2 2 2 2 2 2 3 3 3 3 3 3 3 3 2
5 6 6 5 4 4 4 4 4 4 5 5 5 5 6 5 4 3 3 2 1 0 1 1 1 1 1 1 1 2 2 2 2 2 3 3 4 4 4 3 2 3 3
4 5 5 4 3 3 3 4 4 4 4 5 5 5 6 4 3 3 3 2 2 1 1 1 1 1 1 0 1 2 2 2 2 3 3 3 3 3 4 3 3 3 3
3 3 3 3 4 4 4 3 4 4 4 4 4 5 5 4 3 3 3 2 1 1 1 1 1 0 1 1 2 2 2 2 2 3 4 4 4 4 3 3 4 4 3
2 3 3 4 4 4 4 4 4 4 4 4 4 5 5 4 3 3 2 2 2 1 1 1 0 1 2 2 2 2 2 3 4 4 5 5 5 4 4 3 4 4 3
3 3 3 3 3 3 3 3 3 3 3 3 3 4 4 4 3 3 2 2 2 2 2 1 1 1 2 2 1 2 2 4 4 5 5 5 5 4 4 4 4 4 4
3 3 2 2 3 3 3 3 3 3 3 4 4 4 4 4 3 3 3 2 2 2 2 2 2 2 1 1 2 3 2 2 3 5 6 6 5 4 4 4 5 4 4
Wind_Direction
159 156 152 157 150 138 132 113 82 54 43 39 34 25 23 36 31 3 346 20 15 1 349 357 340 321 321 310 300 264 213 191 216 246 201 142 145 136 131 134 130 127 131
154 154 148 134 136 144 139 126 105 94 87 69 55 39 21 29 24 17 11 24 19 14 10 17 1 356 358 341 337 313 254 214 202 212 212 179 161 147 148 160 139 136 132
153 151 144 149 138 134 123 113 112 107 98 93 77 63 36 33 31 23 36 35 32 28 25 28 18 16 8 358 355 342 316 279 196 193 203 165 154 152 145 151 131 134 134
145 145 140 137 137 141 130 117 108 113 119 109 91 65 63 59 38 27 42 45 46 41 35 36 33 25 13 3 5 9 2 327 239 215 189 155 134 143 146 160 154 157 130
144 145 136 133 135 130 122 121 122 123 117 101 93 72 59 65 29 25 32 56 59 56 46 48 51 45 38 31 24 17 11 18 310 240 143 123 124 138 181 191 169 139 111
121 139 142 142 144 142 136 132 128 120 113 110 99 77 58 41 28 32 32 50 50 60 59 47 62 55 44 50 46 38 34 32 48 70 98 117 147 167 184 159 155 152 166
132 129 144 154 158 155 150 133 141 132 119 105 95 87 77 55 44 39 28 49 59 54 55 42 37 41 39 31 42 50 40 27 40 74 68 333 200 190 174 179 176 177 183
148 154 159 164 152 135 127 137 134 123 123 125 112 95 85 62 46 39 14 79 85 72 57 47 50 40 23 10 24 60 54 37 34 65 74 31 28 34 189 199 193 160 138
155 153 157 156 147 143 150 149 128 130 138 139 121 109 103 80 48 36 12 77 104 91 79 56 47 42 13 10 27 51 54 46 54 62 83 97 69 42 29 77 115 124 127
157 153 146 140 142 146 145 136 136 147 137 128 113 110 109 96 63 42 11 9 97 97 99 85 59 45 17 18 18 22 18 359 43 56 60 71 75 74 83 83 69 69 62
139 134 133 138 146 143 132 129 138 140 128 125 129 123 110 107 93 60 39 27 26 62 91 90 65 31 15 5 3 6 330 315 290 225 150 115 93 64 76 100 74 348 46
134 136 134 140 150 137 136 147 153 149 149 147 146 141 129 119 100 75 53 33 3 21 54 73 74 26 350 339 351 342 336 330 329 24 58 59 64 70 352 202 126 29 60
137 137 137 137 120 131 154 170 174 173 176 158 156 157 140 124 108 89 77 37 18 31 43 60 303 274 279 264 310 355 4 13 354 357 47 41 202 232 228 196 140 111 45
147 148 148 146 141 138 168 162 147 149 165 154 152 151 139 126 105 88 87 87 60 72 45 283 245 255 279 323 357 4 33 359 329 329 328 268 193 167 119 97 156 191 231
160 163 165 159 145 127 94 59 88 80 118 150 109 102 121 122 118 135 148 71 338 356 315 239 218 191 198 213 112 16 5 3 327 328 342 345 354 4 290 170 221 271 253
181 188 184 168 161 158 143 108 54 72 86 83 83 98 95 104 119 101 70 27 353 343 305 284 344 22 11 355 334 350 12 1 339 328 342 335 318 299 272 268 282 294 299
189 190 185 174 170 173 169 163 147 100 75 71 77 96 111 125 118 101 53 5 334 329 291 328 24 24 10 355 356 4 8 11 346 334 332 325 317 310 307 296 293 287 282
193 188 185 189 182 179 179 179 172 166 159 142 106 122 139 146 147 143 70 18 1 147 268 10 29 24 22 12 11 7 7 15 4 336 337 332 323 316 312 293 268 261 272
201 194 186 194 193 185 179 175 173 170 155 146 147 151 169 167 179 213 242 271 289 17 23 37 42 38 31 19 14 3 356 1 354 333 340 327 320 317 312 304 299 288 276
193 188 187 203 206 185 181 176 174 167 161 158 161 157 159 169 176 178 195 240 258 11 39 43 54 50 44 29 6 340 330 342 346 336 330 315 313 313 306 300 305 301 288
194 186 196 215 208 182 180 179 175 176 171 166 164 156 158 173 175 169 177 189 211 236 97 76 77 75 61 32 345 320 318 337 345 334 325 323 327 322 313 305 301 304 305
199 187 193 205 188 169 181 181 172 171 170 164 157 152 165 182 180 176 176 170 187 202 152 141 145 119 83 358 340 328 331 356 352 338 328 320 313 313 315 318 318 311 308
207 197 193 192 176 166 180 181 177 178 177 171 164 159 172 190 193 179 178 178 178 194 159 154 199 165 70 57 51 36 6 357 337 323 316 309 307 307 310 315 310 313 314
211 202 193 184 181 183 188 189 186 183 177 174 174 171 178 188 197 189 183 173 173 184 160 133 96 92 88 67 68 56 32 0 345 339 321 304 297 301 308 306 303 311 310
207 196 193 192 189 190 192 187 178 175 173 173 173 179 188 190 197 192 178 178 174 173 178 158 133 86 96 95 80 74 44 20 1 343 323 305 296 299 302 302 302 301 301
213 202 193 194 191 187 188 190 187 176 180 185 187 187 192 198 197 191 189 188 184 175 185 174 152 137 133 134 106 97 69 13 342 334 319 301 298 306 315 309 308 306 307
Height
1527 1528 1528 1528 1529 1529 1528 1528 1528 1528 1528 1528 1528 1528 1528 1528 1528 1528 1527 1527 1527 1527 1527 1526 1526 1526 1525 1524 1524 1524 1524 1525 1525 1526 1527 1528 1528 1528 1528 1528 1528 1528 1529
1526 1527 1527 1527 1528 1528 1528 1527 1527 1527 1527 1527 1527 1527 1527 1527 1527 1526 1526 1526 1526 1526 1525 1525 1524 1524 1523 1523 1522 1522 1522 1522 1523 1523 1525 1525 1525 1526 1526 1526 1527 1526 1527
1525 1526 1526 1527 1527 1527 1527 1527 1526 1526 1526 1526 1526 1526 1526 1526 1526 1525 1525 1525 1524 1524 1524 1523 1523 1522 1522 1521 1520 1520 1520 1520 1520 1521 1522 1523 1523 1524 1524 1524 1524 1524 1524
1524 1524 1525 1526 1526 1526 1526 1526 1526 1526 1526 1526 1525 1525 1525 1525 1525 1524 1524 1523 1523 1523 1523 1522 1522 1521 1520 1519 1519 1518 1518 1518 1518 1519 1520 1521 1521 1521 1522 1522 1522 1522 1523
1523 1523 1524 1524 1525 1525 1525 1524 1525 1525 1525 1525 1525 1524 1524 1524 1524 1523 1523 1522 1522 1522 1521 1521 1521 1520 1519 1519 1518 1517 1516 1516 1517 1518 1518 1519 1519 1519 1520 1520 1521 1521 1521
1523 1523 1523 1524 1524 1524 1524 1524 1523 1524 1524 1523 1523 1523 1523 1523 1523 1522 1522 1521 1521 1520 1520 1520 1520 1519 1518 1518 1517 1516 1516 1516 1516 1516 1517 1517 1518 1518 1518 1519 1519 1519 1520
1520 1522 1522 1523 1523 1523 1523 1523 1523 1523 1523 1523 1522 1522 1522 1521 1521 1521 1521 1520 1520 1520 1519 1519 1519 1518 1518 1517 1516 1516 1516 1516 1516 1516 1516 1516 1517 1517 1517 1517 1517 1517 1518
1519 1520 1521 1522 1522 1522 1522 1521 1521 1521 1521 1521 1521 1521 1520 1520 1520 1520 1520 1520 1519 1519 1519 1518 1518 1517 1517 1516 1516 1515 1515 1515 1515 1515 1515 1515 1516 1516 1516 1517 1516 1517 1517
1517 1518 1519 1519 1520 1520 1520 1520 1520 1520 1520 1520 1520 1519 1519 1519 1519 1519 1519 1519 1519 1518 1518 1518 1517 1516 1516 1516 1515 1515 1515 1514 1514 1514 1514 1515 1515 1515 1515 1515 1515 1515 1515
1515 1516 1517 1517 1517 1518 1518 1518 1518 1518 1518 1518 1518 1518 1518 1518 1518 1518 1518 1518 1518 1518 1517 1517 1516 1516 1515 1515 1515 1514 1514 1514 1514 1514 1514 1514 1514 1514 1514 1514 1514 1514 1514
1513 1514 1514 1515 1515 1516 1516 1516 1516 1517 1517 1516 1516 1516 1517 1516 1517 1517 1517 1517 1517 1517 1517 1516 1516 1516 1515 1515 1514 1514 1513 1514 1513 1513 1513 1513 1513 1513 1513 1513 1513 1513 1513
1511 1512 1512 1513 1514 1514 1514 1515 1515 1515 1515 1515 1516 1516 1516 1515 1516 1516 1516 1516 1516 1516 1516 1516 1516 1515 1515 1514 1514 1514 1513 1513 1513 1513 1513 1513 1512 1512 1512 1512 1512 1512 1512
1509 1510 1510 1511 1512 1512 1513 1513 1514 1514 1514 1514 1515 1515 1515 1515 1515 1515 1515 1516 1516 1516 1516 1516 1515 1515 1514 1514 1514 1513 1513 1512 1512 1512 1512 1512 1512 1512 1511 1511 1511 1511 1511
1507 1508 1508 1509 1510 1511 1511 1512 1512 1512 1513 1513 1513 1514 1514 1514 1514 1514 1514 1515 1515 1514 1515 1515 1515 1514 1514 1513 1513 1512 1512 1512 1511 1511 1511 1511 1511 1511 1510 1510 1509 1509 1509
1505 1506 1507 1507 1508 1509 1509 1509 1510 1511 1511 1512 1512 1513 1512 1512 1513 1513 1513 1513 1513 1513 1514 1514 1514 1513 1513 1512 1512 1512 1511 1511 1510 1510 1510 1510 1509 1509 1509 1509 1508 1507 1507
1502 1504 1505 1505 1506 1507 1507 1508 1508 1509 1510 1510 1511 1511 1511 1511 1512 1512 1512 1513 1513 1513 1513 1513 1513 1513 1512 1512 1511 1511 1510 1510 1509 1509 1508 1508 1508 1507 1507 1507 1506 1506 1505
1500 1501 1503 1503 1504 1505 1506 1506 1507 1507 1508 1509 1509 1510 1510 1510 1510 1511 1511 1511 1511 1512 1512 1512 1512 1512 1511 1511 1510 1510 1509 1508 1508 1508 1507 1506 1506 1505 1505 1504 1504 1503 1503
1498 1499 1500 1501 1502 1503 1504 1504 1504 1505 1505 1506 1507 1507 1508 1509 1509 1510 1510 1510 1510 1510 1511 1511 1511 1510 1510 1509 1509 1508 1507 1507 1506 1506 1505 1504 1504 1503 1502 1502 1501 1501 1500
1496 1497 1498 1499 1500 1500 1501 1502 1503 1503 1503 1504 1505 1505 1506 1507 1508 1509 1509 1509 1509 1509 1509 1509 1509 1509 1508 1507 1507 1506 1506 1505 1504 1503 1503 1502 1502 1501 1500 1500 1499 1498 1498
1493 1494 1495 1496 1497 1498 1499 1499 1500 1501 1501 1502 1503 1503 1504 1505 1506 1506 1507 1508 1508 1508 1508 1508 1507 1507 1506 1505 1505 1504 1504 1503 1502 1502 1501 1500 1499 1499 1498 1497 1497 1496 1495
1491 1492 1493 1494 1495 1495 1496 1497 1498 1499 1499 1500 1501 1501 1502 1503 1504 1505 1505 1506 1506 1506 1506 1506 1506 1505 1504 1504 1503 1502 1502 1501 1500 1499 1499 1498 1497 1496 1496 1495 1494 1494 1493
1489 1490 1491 1492 1492 1493 1494 1495 1496 1497 1497 1498 1499 1500 1501 1501 1502 1503 1504 1504 1504 1504 1504 1504 1503 1503 1502 1502 1501 1501 1500 1499 1498 1497 1496 1495 1495 1494 1494 1493 1492 1491 1490
1488 1489 1489 1490 1491 1491 1492 1493 1494 1495 1496 1497 1498 1498 1499 1500 1501 1502 1502 1502 1502 1503 1503 1502 1502 1501 1500 1500 1499 1498 1497 1496 1495 1495 1494 1493 1492 1492 1491 1490 1489 1489 1488
1485 1486 1487 1488 1489 1489 1490 1492 1493 1494 1495 1496 1497 1497 1497 1498 1499 1500 1500 1500 1500 1500 1500 1500 1499 1499 1498 1497 1496 1496 1495 1494 1493 1492 1491 1490 1489 1489 1488 1488 1487 1486 1485
1483 1484 1486 1487 1487 1488 1489 1490 1491 1492 1493 1494 1495 1495 1496 1496 1497 1498 1498 1498 1498 1498 1497 1497 1497 1496 1495 1494 1494 1493 1492 1491 1490 1489 1488 1487 1487 1486 1485 1485 1484 1483 1482
1482 1483 1484 1485 1486 1487 1488 1488 1489 1490 1491 1492 1493 1493 1494 1494 1495 1495 1495 1496 1496 1495 1495 1494 1494 1493 1492 1492 1491 1490 1489 1488 1487 1486 1485 1484 1484 1483 1482 1481 1481 1480 1479